Flag for U.S.A. Weather past 2 weeks in Knoxville, Tennessee, U.S.A.

61 °F

Light rain. Fog.

Feels Like: 61 °F
Forecast: 57 / 61 °F
Wind: 12 mph from Southwest

Location: McGhee Tyson Airport

Current Time: Nov 30, 2015 at 1:53:04 PM

Latest Report: Nov 30, 2015 at 12:53 PM

Visibility: 2 mi

Pressure: 30.02 "Hg

Humidity: 93%

Dew point: 59 °F

Location of KnoxvilleLocation

Historic Weather in Knoxville — Graph


Knoxville temperature yesterday

Maximum temperature yesterday: 59 °F (at 10:53 AM)
Minimum temperature yesterday: 55 °F (at 1:53 AM)
Average temperature yesterday: 57 °F

Past Weeks' High & Low Weather Summary

High73 °F (Nov 18, 11:53 AM)100% (Nov 29, 6:53 PM)30.65 "Hg (Nov 29, 6:53 PM)
Low25 °F (Nov 23, 7:53 AM)30% (Nov 20, 2:53 PM)29.84 "Hg (Nov 18, 2:53 PM)
Average50 °F68%30.24 "Hg
* Reported Nov 15 12:53 PM — Nov 30 12:53 PM, Knoxville, Weather by CustomWeather, © 2015

Note: Actual official high and low records may vary slightly from our data, if they occured in-between our weather recording intervals... More about our weather records


Knoxville weather history for previous 24 hours

Time TempWeatherWind HumidityBarometerVisibility
12:53 PM
Mon, Nov 30
61 °FLight rain. Fog.12 mph93%30.02 "Hg2 mi
11:53 AM61 °FRain. Fog.10 mph93%30.04 "Hg2 mi
10:50 AM61 °FLight rain. Fog.5 mph94%30.07 "Hg1 mi
9:53 AM59 °FFog.No wind96%30.05 "Hg1 mi
8:53 AM58 °FLight rain. Fog.3 mph97%30.04 "Hg1 mi
8:01 AM58 °FLight rain. Fog.No wind97%30.04 "Hg1 mi
6:55 AM58 °FLight rain. Mostly cloudy.6 mph97%30.03 "Hg7 mi
5:53 AM58 °FLight rain. Fog.3 mph97%30.00 "Hg3 mi
4:53 AM58 °FLight rain. Low clouds.3 mph97%30.00 "Hg8 mi
3:53 AM58 °FRain. Fog.3 mph97%30.00 "Hg5 mi
2:53 AM58 °FLight rain. Fog.No wind97%30.01 "Hg4 mi
1:53 AM58 °FRain. Fog.7 mph97%30.03 "Hg3 mi
12:53 AM58 °FHeavy rain. Fog.5 mph97%30.06 "Hg3 mi
11:53 PM
Sun, Nov 29
58 °FHeavy rain. Fog.5 mph97%30.06 "Hg4 mi
10:53 PM58 °FRain. Fog.7 mph97%30.06 "Hg6 mi
9:53 PM58 °FRain. Fog.5 mph97%30.07 "Hg5 mi
8:53 PM58 °FRain. Fog.5 mph97%30.07 "Hg4 mi
7:53 PM58 °FRain. Fog.3 mph97%30.09 "Hg4 mi
6:53 PM58 °FHeavy rain. Fog.3 mph100%30.09 "Hg2 mi
5:53 PM59 °FHeavy rain. Fog.6 mph96%30.08 "Hg2 mi
4:53 PM59 °FRain. Fog.3 mph96%30.07 "Hg2 mi
3:53 PM59 °FLight rain. Fog.5 mph96%30.06 "Hg2 mi
3:02 PM59 °FLight rain. Fog.5 mph96%30.08 "Hg2 mi
2:04 PM59 °FLight rain. Fog.5 mph96%30.11 "Hg2 mi
1:53 PM59 °FLight rain. Fog.No wind96%30.11 "Hg2 mi
1:04 PM59 °FRain. Fog.No wind93%30.14 "Hg4 mi
1:00 PM59 °FRain. Fog.No wind96%30.14 "Hg3 mi
Weather by CustomWeather, © 2015

See weather overviewHow to use our weather pages